Time,TemperatureF,DewpointF,PressureIn,WindDirection,WindDirectionDegrees,WindSpeedMPH,WindSpeedGustMPH,Humidity,HourlyPrecipIn,Conditions,Clouds,dailyrainin,SoftwareType,DateUTC
2013-03-31 00:07:00,56.2,52.7,30.10,SW,225,0.0,0.0,88,0.00,,,0.00,Wunderground v.1.15,2013-03-31 07:07:00,
2013-03-31 00:12:00,56.1,52.9,30.10,SW,225,0.0,0.0,89,0.00,,,0.00,Wunderground v.1.15,2013-03-31 07:12:00,
2013-03-31 00:22:00,56.0,52.8,30.10,SW,225,0.0,0.0,89,0.00,,,0.00,Wunderground v.1.15,2013-03-31 07:22:00,
2013-03-31 00:27:00,56.0,53.1,30.10,SW,225,0.0,0.0,90,0.00,,,0.00,Wunderground v.1.15,2013-03-31 07:27:00,
2013-03-31 00:37:00,56.2,53.3,30.10,SW,225,0.0,0.0,90,0.00,,,0.00,Wunderground v.1.15,2013-03-31 07:37:00,
2013-03-31 00:42:00,56.4,53.2,30.10,SW,225,0.0,0.0,89,0.00,,,0.00,Wunderground v.1.15,2013-03-31 07:42:00,
2013-03-31 00:52:00,56.9,53.7,30.10,SW,225,1.0,1.0,89,0.00,,,0.00,Wunderground v.1.15,2013-03-31 07:52:00,
2013-03-31 00:57:00,57.1,53.6,30.10,SW,225,1.0,2.0,88,0.00,,,0.00,Wunderground v.1.15,2013-03-31 07:57:00,
2013-03-31 01:02:00,57.3,53.8,30.11,SW,225,1.0,1.0,88,0.00,,,0.00,Wunderground v.1.15,2013-03-31 08:02:00,
2013-03-31 01:07:00,57.6,53.8,30.11,SW,229,1.0,2.0,87,0.00,,,0.00,Wunderground v.1.15,2013-03-31 08:07:00,
2013-03-31 01:17:00,57.8,54.0,30.10,SW,229,1.0,2.0,87,0.00,,,0.00,Wunderground v.1.15,2013-03-31 08:17:00,
2013-03-31 01:27:00,57.8,54.0,30.10,SW,229,1.0,1.0,87,0.00,,,0.00,Wunderground v.1.15,2013-03-31 08:27:00,
2013-03-31 01:32:00,57.9,54.1,30.10,SW,229,1.0,1.0,87,0.00,,,0.00,Wunderground v.1.15,2013-03-31 08:32:00,
2013-03-31 01:42:00,57.9,54.1,30.10,NNW,327,1.0,1.0,87,0.00,,,0.00,Wunderground v.1.15,2013-03-31 08:42:00,
2013-03-31 01:47:00,57.9,54.1,30.10,NNW,327,1.0,1.0,87,0.00,,,0.00,Wunderground v.1.15,2013-03-31 08:47:00,
2013-03-31 01:52:00,57.9,53.7,30.09,NNW,327,1.0,1.0,86,0.00,,,0.00,Wunderground v.1.15,2013-03-31 08:52:00,
2013-03-31 01:57:00,58.0,53.8,30.09,NNW,327,1.0,1.0,86,0.00,,,0.00,Wunderground v.1.15,2013-03-31 08:57:00,
2013-03-31 02:07:00,58.0,54.2,30.09,NNW,327,1.0,1.0,87,0.00,,,0.00,Wunderground v.1.15,2013-03-31 09:07:00,
2013-03-31 02:17:00,58.0,53.8,30.08,ENE,59,1.0,2.0,86,0.00,,,0.00,Wunderground v.1.15,2013-03-31 09:17:00,
2013-03-31 02:22:00,57.9,53.7,30.08,ENE,63,1.0,1.0,86,0.00,,,0.00,Wunderground v.1.15,2013-03-31 09:22:00,
2013-03-31 02:27:00,57.8,53.6,30.08,ENE,63,1.0,1.0,86,0.00,,,0.00,Wunderground v.1.15,2013-03-31 09:27:00,
2013-03-31 02:37:00,57.7,53.9,30.09,ENE,63,0.0,1.0,87,0.00,,,0.00,Wunderground v.1.15,2013-03-31 09:37:00,
2013-03-31 02:42:00,57.6,53.8,30.09,ENE,63,0.0,0.0,87,0.00,,,0.00,Wunderground v.1.15,2013-03-31 09:42:00,
2013-03-31 02:47:00,57.6,53.8,30.09,ENE,63,0.0,1.0,87,0.00,,,0.00,Wunderground v.1.15,2013-03-31 09:47:00,
2013-03-31 02:57:00,57.8,54.0,30.09,ENE,63,1.0,1.0,87,0.00,,,0.00,Wunderground v.1.15,2013-03-31 09:57:00,
2013-03-31 03:07:00,57.8,53.6,30.08,ENE,63,0.0,1.0,86,0.00,,,0.00,Wunderground v.1.15,2013-03-31 10:07:00,
2013-03-31 03:12:00,57.8,53.6,30.08,ENE,63,0.0,0.0,86,0.00,,,0.00,Wunderground v.1.15,2013-03-31 10:12:00,
2013-03-31 03:22:00,57.9,53.7,30.08,ENE,63,1.0,1.0,86,0.00,,,0.00,Wunderground v.1.15,2013-03-31 10:22:00,
2013-03-31 03:32:00,58.0,53.8,30.08,ENE,63,0.0,0.0,86,0.00,,,0.00,Wunderground v.1.15,2013-03-31 10:32:00,
2013-03-31 03:37:00,58.0,53.8,30.08,ENE,63,1.0,1.0,86,0.00,,,0.00,Wunderground v.1.15,2013-03-31 10:37:00,
2013-03-31 03:42:00,58.0,53.8,30.07,ENE,63,1.0,1.0,86,0.00,,,0.00,Wunderground v.1.15,2013-03-31 10:42:00,
2013-03-31 03:52:00,57.9,53.7,30.08,ENE,63,1.0,1.0,86,0.00,,,0.00,Wunderground v.1.15,2013-03-31 10:52:00,
2013-03-31 03:57:00,57.9,53.7,30.08,ENE,63,0.0,1.0,86,0.00,,,0.00,Wunderground v.1.15,2013-03-31 10:57:00,
2013-03-31 04:07:00,57.9,53.7,30.08,ENE,63,1.0,1.0,86,0.00,,,0.00,Wunderground v.1.15,2013-03-31 11:07:00,
2013-03-31 04:12:00,57.9,53.7,30.07,ENE,63,1.0,1.0,86,0.00,,,0.00,Wunderground v.1.15,2013-03-31 11:12:00,
2013-03-31 04:22:00,57.9,53.7,30.07,ENE,63,0.0,0.0,86,0.00,,,0.00,Wunderground v.1.15,2013-03-31 11:22:00,
2013-03-31 04:27:00,57.9,54.1,30.07,ENE,63,0.0,1.0,87,0.00,,,0.00,Wunderground v.1.15,2013-03-31 11:27:00,
2013-03-31 04:37:00,57.8,54.0,30.07,ENE,63,1.0,1.0,87,0.00,,,0.00,Wunderground v.1.15,2013-03-31 11:37:00,
2013-03-31 04:47:00,57.9,54.1,30.07,ENE,63,0.0,1.0,87,0.00,,,0.00,Wunderground v.1.15,2013-03-31 11:47:00,
2013-03-31 04:57:00,57.8,54.0,30.07,ENE,63,0.0,0.0,87,0.00,,,0.00,Wunderground v.1.15,2013-03-31 11:57:00,
2013-03-31 05:02:00,57.7,53.9,30.07,ENE,63,0.0,0.0,87,0.00,,,0.00,Wunderground v.1.15,2013-03-31 12:02:00,
2013-03-31 05:12:00,57.7,53.9,30.08,ENE,63,0.0,0.0,87,0.00,,,0.00,Wunderground v.1.15,2013-03-31 12:12:00,
2013-03-31 05:22:00,57.8,54.0,30.08,ENE,63,0.0,0.0,87,0.00,,,0.00,Wunderground v.1.15,2013-03-31 12:22:00,
2013-03-31 05:27:00,57.9,54.1,30.08,ENE,63,0.0,2.0,87,0.00,,,0.00,Wunderground v.1.15,2013-03-31 12:27:00,
2013-03-31 05:32:00,57.9,53.7,30.07,ENE,63,1.0,1.0,86,0.00,,,0.00,Wunderground v.1.15,2013-03-31 12:32:00,
2013-03-31 05:42:00,57.8,53.6,30.07,ENE,63,1.0,1.0,86,0.00,,,0.00,Wunderground v.1.15,2013-03-31 12:42:00,
2013-03-31 05:47:00,57.7,53.9,30.08,ENE,63,0.0,1.0,87,0.00,,,0.00,Wunderground v.1.15,2013-03-31 12:47:00,
2013-03-31 05:57:00,57.5,53.7,30.08,ENE,63,0.0,0.0,87,0.00,,,0.00,Wunderground v.1.15,2013-03-31 12:57:00,
2013-03-31 06:07:00,57.5,53.7,30.08,ENE,63,1.0,1.0,87,0.00,,,0.00,Wunderground v.1.15,2013-03-31 13:07:00,
2013-03-31 06:12:00,57.6,53.8,30.08,ENE,63,1.0,1.0,87,0.00,,,0.00,Wunderground v.1.15,2013-03-31 13:12:00,
2013-03-31 06:17:00,57.6,53.8,30.09,ENE,63,0.0,1.0,87,0.00,,,0.00,Wunderground v.1.15,2013-03-31 13:17:00,
2013-03-31 06:22:00,57.7,53.9,30.08,ENE,63,0.0,0.0,87,0.00,,,0.00,Wunderground v.1.15,2013-03-31 13:22:00,
2013-03-31 06:27:00,57.7,53.9,30.08,ENE,63,0.0,2.0,87,0.00,,,0.00,Wunderground v.1.15,2013-03-31 13:27:00,
2013-03-31 06:37:00,57.8,54.0,30.08,ENE,63,0.0,0.0,87,0.00,,,0.00,Wunderground v.1.15,2013-03-31 13:37:00,
2013-03-31 06:42:00,57.8,54.0,30.08,ENE,63,0.0,0.0,87,0.00,,,0.00,Wunderground v.1.15,2013-03-31 13:42:00,
2013-03-31 06:52:00,57.7,53.9,30.09,ENE,63,0.0,0.0,87,0.00,,,0.00,Wunderground v.1.15,2013-03-31 13:52:00,
2013-03-31 06:57:00,57.8,54.0,30.09,ENE,63,0.0,0.0,87,0.00,,,0.00,Wunderground v.1.15,2013-03-31 13:57:00,
2013-03-31 07:07:00,57.9,54.1,30.09,ENE,65,1.0,2.0,87,0.00,,,0.00,Wunderground v.1.15,2013-03-31 14:07:00,
2013-03-31 07:12:00,57.9,54.1,30.09,ENE,65,1.0,2.0,87,0.00,,,0.00,Wunderground v.1.15,2013-03-31 14:12:00,
2013-03-31 07:17:00,58.0,54.2,30.09,ENE,66,1.0,2.0,87,0.00,,,0.00,Wunderground v.1.15,2013-03-31 14:17:00,
2013-03-31 07:22:00,58.0,54.2,30.09,SSE,159,1.0,2.0,87,0.00,,,0.00,Wunderground v.1.15,2013-03-31 14:22:00,
2013-03-31 07:27:00,58.1,53.9,30.09,SSE,159,1.0,2.0,86,0.00,,,0.00,Wunderground v.1.15,2013-03-31 14:27:00,
2013-03-31 07:37:00,58.3,54.4,30.10,SSE,159,1.0,2.0,87,0.00,,,0.00,Wunderground v.1.15,2013-03-31 14:37:00,
2013-03-31 07:42:00,58.4,54.2,30.10,SSE,159,1.0,1.0,86,0.00,,,0.00,Wunderground v.1.15,2013-03-31 14:42:00,
2013-03-31 07:47:00,58.6,54.4,30.09,SSE,159,1.0,1.0,86,0.00,,,0.00,Wunderground v.1.15,2013-03-31 14:47:00,
2013-03-31 07:52:00,58.8,54.6,30.09,SSE,159,1.0,2.0,86,0.00,,,0.00,Wunderground v.1.15,2013-03-31 14:52:00,
2013-03-31 07:57:00,59.0,54.5,30.10,SE,127,1.0,2.0,85,0.00,,,0.00,Wunderground v.1.15,2013-03-31 14:57:00,
2013-03-31 08:07:00,59.4,54.6,30.10,SE,128,1.0,2.0,84,0.00,,,0.00,Wunderground v.1.15,2013-03-31 15:07:00,
2013-03-31 08:12:00,59.8,54.6,30.10,SE,146,1.0,2.0,83,0.00,,,0.00,Wunderground v.1.15,2013-03-31 15:12:00,
2013-03-31 08:17:00,60.2,55.0,30.10,SE,142,1.0,2.0,83,0.00,,,0.00,Wunderground v.1.15,2013-03-31 15:17:00,
2013-03-31 08:22:00,60.7,54.8,30.10,SSE,155,2.0,2.0,81,0.00,,,0.00,Wunderground v.1.15,2013-03-31 15:22:00,
2013-03-31 08:32:00,61.5,55.3,30.09,ESE,106,2.0,2.0,80,0.00,,,0.00,Wunderground v.1.15,2013-03-31 15:32:00,
2013-03-31 08:42:00,62.5,55.2,30.10,East,94,2.0,2.0,77,0.00,,,0.00,Wunderground v.1.15,2013-03-31 15:42:00,
2013-03-31 08:47:00,62.6,55.3,30.10,East,94,2.0,2.0,77,0.00,,,0.00,Wunderground v.1.15,2013-03-31 15:47:00,
2013-03-31 08:52:00,62.5,54.8,30.10,SSW,203,2.0,5.0,76,0.00,,,0.00,Wunderground v.1.15,2013-03-31 15:52:00,
2013-03-31 08:57:00,61.8,54.5,30.10,SW,214,3.0,5.0,77,0.00,,,0.00,Wunderground v.1.15,2013-03-31 15:57:00,
2013-03-31 09:07:00,61.7,54.8,30.10,South,173,2.0,3.0,78,0.00,,,0.00,Wunderground v.1.15,2013-03-31 16:07:00,
2013-03-31 09:12:00,61.8,54.9,30.09,South,173,1.0,1.0,78,0.00,,,0.00,Wunderground v.1.15,2013-03-31 16:12:00,
2013-03-31 09:22:00,62.5,54.8,30.10,West,263,1.0,1.0,76,0.00,,,0.00,Wunderground v.1.15,2013-03-31 16:22:00,
2013-03-31 09:32:00,62.4,54.7,30.10,South,182,3.0,4.0,76,0.00,,,0.00,Wunderground v.1.15,2013-03-31 16:32:00,
2013-03-31 09:37:00,62.3,55.0,30.10,SSW,209,3.0,4.0,77,0.00,,,0.00,Wunderground v.1.15,2013-03-31 16:37:00,
2013-03-31 09:42:00,62.3,55.0,30.10,South,182,2.0,2.0,77,0.00,,,0.00,Wunderground v.1.15,2013-03-31 16:42:00,
2013-03-31 09:52:00,62.4,55.1,30.10,SSW,194,3.0,3.0,77,0.00,,,0.00,Wunderground v.1.15,2013-03-31 16:52:00,
2013-03-31 09:57:00,62.9,55.6,30.11,WSW,244,2.0,4.0,77,0.00,,,0.00,Wunderground v.1.15,2013-03-31 16:57:00,
2013-03-31 10:07:00,63.2,55.5,30.11,South,174,3.0,5.0,76,0.00,,,0.00,Wunderground v.1.15,2013-03-31 17:07:00,
2013-03-31 10:17:00,63.2,55.1,30.11,SSW,193,4.0,5.0,75,0.00,,,0.00,Wunderground v.1.15,2013-03-31 17:17:00,
2013-03-31 10:22:00,63.3,55.6,30.11,SW,218,3.0,3.0,76,0.00,,,0.00,Wunderground v.1.15,2013-03-31 17:22:00,
2013-03-31 10:27:00,63.5,55.4,30.11,SSW,198,3.0,5.0,75,0.00,,,0.00,Wunderground v.1.15,2013-03-31 17:27:00,
2013-03-31 10:37:00,63.6,55.2,30.11,WSW,255,4.0,5.0,74,0.00,,,0.00,Wunderground v.1.15,2013-03-31 17:37:00,
2013-03-31 10:42:00,64.0,55.5,30.11,WSW,238,4.0,4.0,74,0.00,,,0.00,Wunderground v.1.15,2013-03-31 17:42:00,
2013-03-31 10:52:00,63.8,55.4,30.11,SSW,192,3.0,6.0,74,0.00,,,0.00,Wunderground v.1.15,2013-03-31 17:52:00,
2013-03-31 11:02:00,64.7,56.2,30.11,SW,230,3.0,3.0,74,0.00,,,0.00,Wunderground v.1.15,2013-03-31 18:02:00,
2013-03-31 11:07:00,64.8,55.9,30.11,SW,223,3.0,3.0,73,0.00,,,0.00,Wunderground v.1.15,2013-03-31 18:07:00,
2013-03-31 11:17:00,64.4,55.6,30.11,SW,223,4.0,6.0,73,0.00,,,0.00,Wunderground v.1.15,2013-03-31 18:17:00,
2013-03-31 11:22:00,64.8,55.6,30.11,SW,223,3.0,3.0,72,0.00,,,0.00,Wunderground v.1.15,2013-03-31 18:22:00,
2013-03-31 11:32:00,65.4,55.7,30.11,SSW,207,3.0,5.0,71,0.00,,,0.00,Wunderground v.1.15,2013-03-31 18:32:00,
2013-03-31 11:42:00,65.3,56.0,30.11,SSW,196,4.0,4.0,72,0.00,,,0.00,Wunderground v.1.15,2013-03-31 18:42:00,
2013-03-31 11:47:00,65.7,56.0,30.11,South,188,3.0,4.0,71,0.00,,,0.00,Wunderground v.1.15,2013-03-31 18:47:00,
2013-03-31 11:52:00,66.0,56.7,30.11,SE,140,3.0,3.0,72,0.00,,,0.00,Wunderground v.1.15,2013-03-31 18:52:00,
2013-03-31 11:57:00,66.1,56.4,30.11,West,280,3.0,3.0,71,0.00,,,0.00,Wunderground v.1.15,2013-03-31 18:57:00,
2013-03-31 12:02:00,66.3,56.6,30.11,SSW,208,3.0,5.0,71,0.00,,,0.00,Wunderground v.1.15,2013-03-31 19:02:00,
2013-03-31 12:07:00,66.6,56.9,30.10,SSE,161,3.0,5.0,71,0.00,,,0.00,Wunderground v.1.15,2013-03-31 19:07:00,
2013-03-31 12:17:00,66.2,56.5,30.10,WSW,253,3.0,3.0,71,0.00,,,0.00,Wunderground v.1.15,2013-03-31 19:17:00,
2013-03-31 12:22:00,66.6,56.1,30.10,SSW,195,4.0,4.0,69,0.00,,,0.00,Wunderground v.1.15,2013-03-31 19:22:00,
2013-03-31 12:32:00,66.7,57.0,30.10,South,170,4.0,4.0,71,0.00,,,0.00,Wunderground v.1.15,2013-03-31 19:32:00,
2013-03-31 12:37:00,66.7,56.6,30.10,SW,221,4.0,5.0,70,0.00,,,0.00,Wunderground v.1.15,2013-03-31 19:37:00,
2013-03-31 12:42:00,66.4,56.7,30.10,SW,236,5.0,5.0,71,0.00,,,0.00,Wunderground v.1.15,2013-03-31 19:42:00,
2013-03-31 12:52:00,66.5,56.8,30.09,WSW,252,6.0,6.0,71,0.00,,,0.00,Wunderground v.1.15,2013-03-31 19:52:00,
2013-03-31 13:02:00,67.3,56.8,30.09,WSW,240,5.0,5.0,69,0.00,,,0.00,Wunderground v.1.15,2013-03-31 20:02:00,
2013-03-31 13:12:00,67.3,56.8,30.09,SW,214,6.0,7.0,69,0.00,,,0.00,Wunderground v.1.15,2013-03-31 20:12:00,
2013-03-31 13:22:00,67.6,56.7,30.08,SSW,207,5.0,7.0,68,0.00,,,0.00,Wunderground v.1.15,2013-03-31 20:22:00,
2013-03-31 13:32:00,67.7,56.8,30.08,South,187,5.0,5.0,68,0.00,,,0.00,Wunderground v.1.15,2013-03-31 20:32:00,
2013-03-31 13:37:00,67.9,56.9,30.08,SSW,207,5.0,7.0,68,0.00,,,0.00,Wunderground v.1.15,2013-03-31 20:37:00,
2013-03-31 13:42:00,67.6,57.1,30.08,SSW,196,5.0,7.0,69,0.00,,,0.00,Wunderground v.1.15,2013-03-31 20:42:00,
2013-03-31 13:52:00,67.1,57.0,30.07,South,171,7.0,7.0,70,0.00,,,0.00,Wunderground v.1.15,2013-03-31 20:52:00,
2013-03-31 13:57:00,67.4,56.9,30.07,SSW,209,6.0,7.0,69,0.00,,,0.00,Wunderground v.1.15,2013-03-31 20:57:00,
2013-03-31 14:02:00,67.5,56.6,30.06,SSE,150,6.0,6.0,68,0.00,,,0.00,Wunderground v.1.15,2013-03-31 21:02:00,
2013-03-31 14:07:00,67.8,56.4,30.07,SSW,209,5.0,6.0,67,0.00,,,0.00,Wunderground v.1.15,2013-03-31 21:07:00,
2013-03-31 14:17:00,67.8,56.9,30.06,SW,222,5.0,7.0,68,0.00,,,0.00,Wunderground v.1.15,2013-03-31 21:17:00,
2013-03-31 14:22:00,68.2,57.2,30.06,SSW,196,6.0,6.0,68,0.00,,,0.00,Wunderground v.1.15,2013-03-31 21:22:00,
2013-03-31 14:27:00,68.7,57.3,30.06,SSW,210,6.0,6.0,67,0.00,,,0.00,Wunderground v.1.15,2013-03-31 21:27:00,
2013-03-31 14:32:00,68.7,57.3,30.06,WSW,246,5.0,6.0,67,0.00,,,0.00,Wunderground v.1.15,2013-03-31 21:32:00,
2013-03-31 14:42:00,68.9,57.5,30.05,SSW,200,5.0,6.0,67,0.00,,,0.00,Wunderground v.1.15,2013-03-31 21:42:00,
2013-03-31 14:47:00,69.2,56.9,30.05,SW,220,6.0,6.0,65,0.00,,,0.00,Wunderground v.1.15,2013-03-31 21:47:00,
2013-03-31 14:52:00,68.9,57.1,30.05,WSW,243,6.0,6.0,66,0.00,,,0.00,Wunderground v.1.15,2013-03-31 21:52:00,
2013-03-31 14:57:00,69.1,56.8,30.05,SSW,209,6.0,6.0,65,0.00,,,0.00,Wunderground v.1.15,2013-03-31 21:57:00,
2013-03-31 15:07:00,69.0,57.2,30.04,WSW,256,6.0,13.0,66,0.00,,,0.00,Wunderground v.1.15,2013-03-31 22:07:00,
2013-03-31 15:17:00,69.0,56.7,30.05,SSW,199,7.0,7.0,65,0.00,,,0.00,Wunderground v.1.15,2013-03-31 22:17:00,
2013-03-31 15:22:00,68.6,56.4,30.04,SSW,213,6.0,6.0,65,0.00,,,0.00,Wunderground v.1.15,2013-03-31 22:22:00,
2013-03-31 15:32:00,68.5,56.3,30.05,SW,216,5.0,6.0,65,0.00,,,0.00,Wunderground v.1.15,2013-03-31 22:32:00,
2013-03-31 15:37:00,68.1,56.3,30.04,SSW,211,6.0,6.0,66,0.00,,,0.00,Wunderground v.1.15,2013-03-31 22:37:00,
2013-03-31 15:47:00,68.2,56.0,30.04,SSE,163,5.0,11.0,65,0.00,,,0.00,Wunderground v.1.15,2013-03-31 22:47:00,
2013-03-31 15:52:00,67.7,55.9,30.04,SSW,209,6.0,7.0,66,0.00,,,0.00,Wunderground v.1.15,2013-03-31 22:52:00,
2013-03-31 15:57:00,67.3,57.2,30.04,WNW,300,6.0,7.0,70,0.00,,,0.00,Wunderground v.1.15,2013-03-31 22:57:00,
2013-03-31 16:07:00,66.2,57.7,30.04,WSW,254,4.0,5.0,74,0.00,,,0.00,Wunderground v.1.15,2013-03-31 23:07:00,
2013-03-31 16:17:00,65.0,57.2,30.04,West,259,5.0,5.0,76,0.00,,,0.00,Wunderground v.1.15,2013-03-31 23:17:00,
2013-03-31 16:22:00,64.8,57.1,30.04,SSW,201,5.0,5.0,76,0.00,,,0.00,Wunderground v.1.15,2013-03-31 23:22:00,
2013-03-31 16:27:00,64.7,57.0,30.04,SW,223,4.0,5.0,76,0.00,,,0.00,Wunderground v.1.15,2013-03-31 23:27:00,
2013-03-31 16:32:00,64.4,57.0,30.04,SW,235,5.0,5.0,77,0.00,,,0.00,Wunderground v.1.15,2013-03-31 23:32:00,
2013-03-31 16:42:00,63.5,56.9,30.04,WSW,253,5.0,6.0,79,0.00,,,0.00,Wunderground v.1.15,2013-03-31 23:42:00,
2013-03-31 16:52:00,62.5,56.2,30.04,WNW,300,5.0,5.0,80,0.00,,,0.00,Wunderground v.1.15,2013-03-31 23:52:00,
2013-03-31 16:57:00,62.5,56.2,30.04,SW,234,4.0,7.0,80,0.00,,,0.00,Wunderground v.1.15,2013-03-31 23:57:00,
2013-03-31 17:07:00,62.3,55.7,30.04,SW,232,5.0,6.0,79,0.00,,,0.00,Wunderground v.1.15,2013-04-01 00:07:00,
2013-03-31 17:12:00,62.5,55.9,30.04,WNW,289,4.0,4.0,79,0.00,,,0.00,Wunderground v.1.15,2013-04-01 00:12:00,
2013-03-31 17:22:00,62.6,56.0,30.03,West,275,5.0,7.0,79,0.00,,,0.00,Wunderground v.1.15,2013-04-01 00:22:00,
2013-03-31 17:27:00,62.6,55.6,30.03,WNW,293,4.0,7.0,78,0.00,,,0.00,Wunderground v.1.15,2013-04-01 00:27:00,
2013-03-31 17:37:00,62.6,55.3,30.03,SW,235,5.0,5.0,77,0.00,,,0.00,Wunderground v.1.15,2013-04-01 00:37:00,
2013-03-31 17:47:00,62.6,55.3,30.04,West,277,4.0,5.0,77,0.00,,,0.00,Wunderground v.1.15,2013-04-01 00:47:00,
2013-03-31 17:52:00,62.6,54.9,30.03,West,273,4.0,4.0,76,0.00,,,0.00,Wunderground v.1.15,2013-04-01 00:52:00,
2013-03-31 18:02:00,62.6,54.6,30.04,West,277,3.0,3.0,75,0.00,,,0.00,Wunderground v.1.15,2013-04-01 01:02:00,
2013-03-31 18:07:00,62.8,54.8,30.04,West,261,3.0,3.0,75,0.00,,,0.00,Wunderground v.1.15,2013-04-01 01:07:00,
2013-03-31 18:12:00,62.8,54.8,30.04,West,263,3.0,3.0,75,0.00,,,0.00,Wunderground v.1.15,2013-04-01 01:12:00,
2013-03-31 18:22:00,63.0,54.6,30.04,SSW,210,4.0,4.0,74,0.00,,,0.00,Wunderground v.1.15,2013-04-01 01:22:00,
2013-03-31 18:32:00,63.0,54.2,30.04,SW,234,4.0,4.0,73,0.00,,,0.00,Wunderground v.1.15,2013-04-01 01:32:00,
2013-03-31 18:42:00,63.1,54.7,30.05,WSW,252,2.0,2.0,74,0.00,,,0.00,Wunderground v.1.15,2013-04-01 01:42:00,
2013-03-31 18:47:00,63.1,54.7,30.05,WSW,237,3.0,3.0,74,0.00,,,0.00,Wunderground v.1.15,2013-04-01 01:47:00,
2013-03-31 18:52:00,62.9,54.9,30.04,SW,229,3.0,5.0,75,0.00,,,0.00,Wunderground v.1.15,2013-04-01 01:52:00,
2013-03-31 18:57:00,62.6,54.6,30.05,WSW,245,3.0,5.0,75,0.00,,,0.00,Wunderground v.1.15,2013-04-01 01:57:00,
2013-03-31 19:02:00,62.5,54.8,30.05,WNW,302,3.0,4.0,76,0.00,,,0.00,Wunderground v.1.15,2013-04-01 02:02:00,
2013-03-31 19:07:00,62.3,54.6,30.05,West,281,3.0,4.0,76,0.00,,,0.00,Wunderground v.1.15,2013-04-01 02:07:00,
2013-03-31 19:17:00,61.7,54.8,30.05,West,279,3.0,5.0,78,0.00,,,0.00,Wunderground v.1.15,2013-04-01 02:17:00,
2013-03-31 19:22:00,61.6,55.0,30.05,WNW,298,3.0,3.0,79,0.00,,,0.00,Wunderground v.1.15,2013-04-01 02:22:00,
2013-03-31 19:32:00,61.3,54.7,30.05,West,269,4.0,4.0,79,0.00,,,0.00,Wunderground v.1.15,2013-04-01 02:32:00,
2013-03-31 19:42:00,60.9,54.7,30.05,West,268,4.0,4.0,80,0.00,,,0.00,Wunderground v.1.15,2013-04-01 02:42:00,
2013-03-31 19:52:00,60.6,54.7,30.05,WSW,252,4.0,4.0,81,0.00,,,0.00,Wunderground v.1.15,2013-04-01 02:52:00,
2013-03-31 19:57:00,60.6,55.1,30.06,WSW,256,3.0,4.0,82,0.00,,,0.00,Wunderground v.1.15,2013-04-01 02:57:00,
2013-03-31 20:07:00,60.5,55.3,30.06,West,271,4.0,5.0,83,0.00,,,0.00,Wunderground v.1.15,2013-04-01 03:07:00,
2013-03-31 20:17:00,60.2,55.0,30.06,WSW,239,4.0,4.0,83,0.00,,,0.00,Wunderground v.1.15,2013-04-01 03:17:00,
2013-03-31 20:27:00,59.7,54.9,30.06,SW,234,5.0,6.0,84,0.00,,,0.00,Wunderground v.1.15,2013-04-01 03:27:00,
2013-03-31 20:37:00,59.5,54.7,30.07,SW,230,4.0,6.0,84,0.00,,,0.00,Wunderground v.1.15,2013-04-01 03:37:00,
2013-03-31 20:42:00,59.5,54.7,30.07,SW,224,5.0,7.0,84,0.00,,,0.00,Wunderground v.1.15,2013-04-01 03:42:00,
2013-03-31 20:52:00,59.4,54.6,30.07,WSW,258,5.0,5.0,84,0.00,,,0.00,Wunderground v.1.15,2013-04-01 03:52:00,
2013-03-31 21:02:00,59.5,54.7,30.08,SW,225,4.0,4.0,84,0.00,,,0.00,Wunderground v.1.15,2013-04-01 04:02:00,
2013-03-31 21:07:00,59.3,54.5,30.08,WSW,244,5.0,5.0,84,0.00,,,0.00,Wunderground v.1.15,2013-04-01 04:07:00,
2013-03-31 21:12:00,59.3,54.5,30.08,SW,236,4.0,5.0,84,0.00,,,0.00,Wunderground v.1.15,2013-04-01 04:12:00,
2013-03-31 21:22:00,59.3,54.5,30.09,SW,225,4.0,4.0,84,0.00,,,0.00,Wunderground v.1.15,2013-04-01 04:22:00,
2013-03-31 21:27:00,59.1,54.3,30.09,WSW,243,4.0,5.0,84,0.00,,,0.00,Wunderground v.1.15,2013-04-01 04:27:00,
2013-03-31 21:37:00,59.1,54.3,30.09,WSW,239,4.0,7.0,84,0.00,,,0.00,Wunderground v.1.15,2013-04-01 04:37:00,
2013-03-31 21:42:00,59.0,54.5,30.09,SW,229,4.0,4.0,85,0.00,,,0.00,Wunderground v.1.15,2013-04-01 04:42:00,
2013-03-31 21:47:00,58.9,54.4,30.09,SW,215,4.0,4.0,85,0.00,,,0.00,Wunderground v.1.15,2013-04-01 04:47:00,
2013-03-31 21:52:00,58.8,54.3,30.09,SW,222,4.0,4.0,85,0.00,,,0.00,Wunderground v.1.15,2013-04-01 04:52:00,
2013-03-31 22:02:00,58.7,54.5,30.10,SSW,211,4.0,5.0,86,0.00,,,0.00,Wunderground v.1.15,2013-04-01 05:02:00,
2013-03-31 22:07:00,58.6,54.4,30.10,SW,233,4.0,5.0,86,0.00,,,0.00,Wunderground v.1.15,2013-04-01 05:07:00,
2013-03-31 22:17:00,58.6,54.1,30.10,West,262,3.0,4.0,85,0.00,,,0.00,Wunderground v.1.15,2013-04-01 05:17:00,
2013-03-31 22:27:00,58.6,53.8,30.10,WSW,252,3.0,6.0,84,0.00,,,0.00,Wunderground v.1.15,2013-04-01 05:27:00,
2013-03-31 22:32:00,58.5,53.7,30.10,SW,224,4.0,4.0,84,0.00,,,0.00,Wunderground v.1.15,2013-04-01 05:32:00,
2013-03-31 22:37:00,58.4,53.6,30.10,SW,225,4.0,5.0,84,0.00,,,0.00,Wunderground v.1.15,2013-04-01 05:37:00,
2013-03-31 22:47:00,58.1,53.6,30.10,WSW,245,3.0,3.0,85,0.00,,,0.00,Wunderground v.1.15,2013-04-01 05:47:00,
2013-03-31 22:52:00,58.0,53.8,30.10,SW,234,3.0,3.0,86,0.00,,,0.00,Wunderground v.1.15,2013-04-01 05:52:00,
2013-03-31 22:57:00,57.9,53.7,30.10,WSW,248,4.0,4.0,86,0.00,,,0.00,Wunderground v.1.15,2013-04-01 05:57:00,
2013-03-31 23:07:00,57.7,53.5,30.10,WSW,237,3.0,4.0,86,0.00,,,0.00,Wunderground v.1.15,2013-04-01 06:07:00,
2013-03-31 23:12:00,57.7,53.9,30.10,SW,230,3.0,4.0,87,0.00,,,0.00,Wunderground v.1.15,2013-04-01 06:12:00,
2013-03-31 23:22:00,57.5,53.3,30.10,WNW,285,3.0,3.0,86,0.00,,,0.00,Wunderground v.1.15,2013-04-01 06:22:00,
2013-03-31 23:32:00,57.3,53.1,30.09,West,279,2.0,2.0,86,0.00,,,0.00,Wunderground v.1.15,2013-04-01 06:32:00,
2013-03-31 23:37:00,57.2,53.4,30.10,WNW,286,2.0,4.0,87,0.00,,,0.00,Wunderground v.1.15,2013-04-01 06:37:00,
2013-03-31 23:42:00,57.1,53.3,30.10,West,278,3.0,3.0,87,0.00,,,0.00,Wunderground v.1.15,2013-04-01 06:42:00,
2013-03-31 23:52:00,57.0,53.2,30.10,West,263,3.0,3.0,87,0.00,,,0.00,Wunderground v.1.15,2013-04-01 06:52:00,
2013-03-31 23:57:00,57.0,53.2,30.10,SW,225,3.0,3.0,87,0.00,,,0.00,Wunderground v.1.15,2013-04-01 06:57:00,